sat.trackr.live / text

‹ back to catalog

HULIANWANG DIGUI-127

NORAD 67067 · 2025-295J

PAYLOAD ACTIVE UNKNOWN

§ Identity

Operator
Country
PRC
Launch date
2025-12-11
Launch site
WSC
Launch vehicle
Mass (kg)
RCS (m²)

External: N2YO · Heavens-Above · Gunter

§ Orbital elements

Epoch: 2026-09-20T15:25:31.358784Z

Period
108.33 min
Inclination
50.0021°
Eccentricity
0.0000725
Mean motion
13.29324409 rev/d
Perigee alt
1,148.8 km
Apogee alt
1,149.9 km
Semi-major
7,527.4 km
B*
2.8960e-5
RAAN
42.7698°
Arg perigee
80.4481°
Mean anomaly
279.6473°
Rev number
3,820

§ Raw data

HULIANWANG DIGUI-1271 67067U 25295J   26263.64272406 -.00000111  00000+0  28960-4 0  99912 67067  50.0021  42.7698 0000725  80.4481 279.6473 13.29324409 38209

JSON: /api/v1/satellites/67067 · /tle

For live sub-satellite position, see the globe view (requires WebGL).

§ Visibility from observer

Set your observer location to see the next 7 days of passes ≥ 10°. The values pass through the URL so the page stays shareable.

No JS? Fill the form by hand. The geolocation button needs JavaScript.